Meteo Giornale » Osservazioni meteo Austria » Salisburgo

ore: 20:50 - Osservazioni Meteo Salisburgo
Lat. 47° 48' N Lon. 13° 0' E Alt. 430 metri s.l.m.

poco_nuvoloso

19 °C

Poco Nuvoloso

Temp. 24 Ore

14 °C

25 °C

Sud

9.3 Km/h

Dew point 13 °C

Umidità 68 %

Visibilità  10 Km

Il sole sorge alle ore 06:26

Il sole tramonta alle ore 19:49

Data e Ora Cielo e Fenomeni T °C DP °C Um. % Pres. hPa Vis. km Vento km/h
Oggi h: 20:50 poco_nuvoloso Poco Nuvoloso 19 13 68 1021 10 S 9.3
Oggi h: 20:20 nuvoloso Nuvoloso 19 13 68 1021 10 N 3.7
Oggi h: 19:50 nuvoloso Nuvoloso 21 13 60 1021 10 N 1.8
Oggi h: 19:20 poco_nuvoloso Poco Nuvoloso 22 11 49 1021 10 O 7.4
Oggi h: 18:50 poco_nuvoloso Poco Nuvoloso 24 10 41 1021 10 N 3.7
Oggi h: 18:20 poco_nuvoloso Poco Nuvoloso 25 11 41 1021 10 N 5.5
Oggi h: 17:50 poco_nuvoloso Poco Nuvoloso 24 10 41 1021 10 N 3.7
Oggi h: 17:20 poco_nuvoloso Poco Nuvoloso 24 11 43 1021 10 NO 7.4
Oggi h: 16:50 nuvoloso Nuvoloso 24 11 43 1021 10 N/NO 7.4
Oggi h: 16:20 molto_nuvoloso Molto Nuvoloso 25 11 41 1021 10 N/NO 11.1
Oggi h: 15:50 molto_nuvoloso Molto Nuvoloso 25 11 41 1021 10 N 14.8
Oggi h: 15:20 nuvoloso Nuvoloso 25 10 38 1021 10 N/NO 13
Oggi h: 14:50 poco_nuvoloso Poco Nuvoloso 25 11 41 1022 10 N/NO 18.5
Oggi h: 14:20 nuvoloso Nuvoloso 24 11 43 1022 10 N 9.3
Oggi h: 13:50 poco_nuvoloso Poco Nuvoloso 24 11 43 1022 10 O/NO 16.7
Oggi h: 13:20 poco_nuvoloso Poco Nuvoloso 24 11 43 1022 10 N/NO 16.7
Oggi h: 12:50 poco_nuvoloso Poco Nuvoloso 24 11 43 1022 10 O/NO 16.7
Oggi h: 12:20 poco_nuvoloso Poco Nuvoloso 23 12 49 1022 10 N 9.3
Oggi h: 11:50 poco_nuvoloso Poco Nuvoloso 23 12 49 1022 10 N 7.4
Oggi h: 11:20 sereno Sereno 22 12 53 1023 10 N 3.7
Oggi h: 10:50 sereno Sereno 21 12 56 1023 10 N 3.7
Oggi h: 10:20 sereno Sereno 21 12 56 1023 10 N 1.8
Oggi h: 09:50 sereno Sereno 21 13 60 1023 10 N 5.5
Oggi h: 09:20 sereno Sereno 20 14 68 1023 10 S/SE 7.4
Oggi h: 08:50 poco_nuvoloso Poco Nuvoloso 18 14 77 1023 10 S/SE 11.1
Oggi h: 08:20 poco_nuvoloso Poco Nuvoloso 17 14 82 1023 10 S/SE 14.8
Oggi h: 07:50 poco_nuvoloso Poco Nuvoloso 16 13 82 1023 10 S/SE 13
Oggi h: 07:20 poco_nuvoloso Poco Nuvoloso 15 13 87 1022 10 S/SE 11.1
Oggi h: 06:50 poco_nuvoloso Poco Nuvoloso 14 12 87 1022 10 S/SE 11.1
Oggi h: 06:20 poco_nuvoloso Poco Nuvoloso 14 12 87 1022 10 S 9.3
Oggi h: 05:50 poco_nuvoloso Poco Nuvoloso 15 13 87 1023 10 S 9.3
Oggi h: 05:20 molto_nuvoloso Molto Nuvoloso 15 13 87 1023 10 S/SE 11.1
Oggi h: 04:50 molto_nuvoloso Molto Nuvoloso 16 13 82 1023 10 N 3.7
Oggi h: 04:20 molto_nuvoloso Molto Nuvoloso 16 13 82 1023 10 N 3.7
Oggi h: 03:50 molto_nuvoloso Molto Nuvoloso 17 12 72 1022 10 S/SO 11.1
Oggi h: 03:20 molto_nuvoloso Molto Nuvoloso 16 13 82 1022 10 N 5.5
Oggi h: 02:50 nuvoloso Nuvoloso 17 12 72 1022 10 N 5.5
Oggi h: 02:20 nuvoloso Nuvoloso 18 12 67 1022 10 N 1.8
Oggi h: 01:50 molto_nuvoloso Molto Nuvoloso 16 14 87 1022 10 N 5.5
Oggi h: 01:20 nuvoloso Nuvoloso 17 14 82 1022 10 S 9.3
Oggi h: 00:50 molto_nuvoloso Molto Nuvoloso 17 14 82 1022 10 S/SE 7.4
Oggi h: 00:20 molto_nuvoloso Molto Nuvoloso 17 14 82 1021 10 S/SE 13
Ieri h: 23:50 molto_nuvoloso Molto Nuvoloso 18 14 77 1021 10 S/SE 14.8
Ieri h: 23:20 nuvoloso Nuvoloso 17 14 82 1021 10 S/SE 16.7
Ieri h: 22:50 poco_nuvoloso Poco Nuvoloso 18 13 72 1020 10 S/SE 11.1
Ieri h: 22:20 nuvoloso Nuvoloso 18 13 72 1020 10 S 13
Ieri h: 21:50 molto_nuvoloso Molto Nuvoloso 19 13 68 1020 10 SE 13